Regional Weather Roundup
Issued by NWS

Home | Current Version | Previous Version | Text Only | Print | Product List | Glossary Off
Versions: 1 2 3 4 5 6 7 8 9 10 11 12 13 14 15 16 17 18 19 20 21 22 23 24 25 26 27 28 29 30 31 32 33 34 35 36 37 38 39 40 41 42 43 44 45 46 47 48 49 50

000
ASUS43 KIND 290009
RWRIN

WEATHER ROUNDUP FOR INDIANA
NATIONAL WEATHER SERVICE INDIANAPOLIS IN
800 PM EDT SAT MAR 28 2015

NOTE: "FAIR" INDICATES FEW OR NO CLOUDS BELOW 12,000 FEET WITH NO
SIGNIFICANT WEATHER AND/OR OBSTRUCTIONS TO VISIBILITY.

* - STATION DOES NOT REPORT WEATHER SUCH AS PRECIPITATION OR FOG.

+ - STATION NOT QUALITY CONTROLLED BY THE NATIONAL WEATHER SERVICE.
    USE DATA WITH CAUTION...ESPECIALLY DEWPOINT AND RELATIVE
    HUMIDITY OBSERVATIONS.

INZ001>003-010>013-019-020-290100-
NORTHWEST INDIANA

CITY           SKY/WX    TMP DP  RH WIND       PRES   REMARKS
GARY /AIRPORT/ CLEAR     30   7  37 NE8       30.32S WCI  23
KNOX *+          N/A     32   0  25 N7        30.28S WCI  26
LA PORTE +     CLEAR     30  15  53 N6        30.30S WCI  24
6HR MIN TEMP:  30; 6HR MAX TEMP:  37;

MICHIGAN CITY+ CLEAR     27   9  46 N5        30.32S WCI  21
MONTICELLO +   CLEAR     34  11  38 CALM      30.30R
6HR MIN TEMP:  31; 6HR MAX TEMP:  36;

RENSSELAER +   CLEAR     36  12  38 CALM      30.30S
VALPARAISO     CLEAR     29  12  49 N5        30.30S WCI  24
6HR MIN TEMP:  29; 6HR MAX TEMP:  38;


$$

LMZ046-743>745-290100-
SOUTHERN LAKE MICHIGAN

STATION/POSITION TIME  TEMP WIND        PRES
                       AIR  DIR/SP/G
                 (UTC) (F)  (DEG/KT/KT) (MB)
BURNS HARBOR     0000   28   50/  5/  7 1027.1S
MICHIGAN CITY    0000   26   10/  6/  7   N/A

$$

INZ004-005-014>016-021>024-290100-
NORTH CENTRAL INDIANA

CITY           SKY/WX    TMP DP  RH WIND       PRES   REMARKS
GOSHEN         CLEAR     33   9  36 SW6       30.28S WCI  28
6HR MIN TEMP:  31; 6HR MAX TEMP:  37;

LOGANSPORT +   FAIR      32  19  59 S5        30.31R WCI  27
PERU/GRISSOM   CLEAR     32  14  48 SW3       30.28F
6HR MIN TEMP:  31; 6HR MAX TEMP:  37;

ROCHESTER +    CLEAR     36   9  32 SW5       30.30R
SOUTH BEND     CLEAR     29  13  51 NW8       30.30S WCI  21
6HR MIN TEMP:  29; 6HR MAX TEMP:  38;

WARSAW +       CLEAR     32  10  40 W3        30.29S

$$

INZ006>009-017-018-025>027-290100-
NORTHEAST INDIANA

CITY           SKY/WX    TMP DP  RH WIND       PRES   REMARKS
ANGOLA *+      CLEAR     32   9  37 CALM      30.27S
AUBURN +       CLEAR     32   9  37 W3        30.28S
FORT WAYNE     CLEAR     32  16  51 W5        30.29S WCI  27
6HR MIN TEMP:  30; 6HR MAX TEMP:  37;

HUNTINGTON +   CLEAR     32   5  32 CALM      30.29S
6HR MIN TEMP:  29; 6HR MAX TEMP:  35;


$$

INZ028-029-035-036-043>045-051>053-290100-
WEST CENTRAL INDIANA

CITY           SKY/WX    TMP DP  RH WIND       PRES   REMARKS
CRAWFORDSVL +  CLEAR     32  10  40 MISG      30.29S
6HR MIN TEMP:  31; 6HR MAX TEMP:  37;

GREENCASTLE +  CLEAR     34  10  37 NE6       30.29S WCI  29
LAFAYETTE      CLEAR     35  11  36 N5        30.30S WCI  31
6HR MIN TEMP:  31; 6HR MAX TEMP:  38;

TERRE HAUTE    CLEAR     38   9  30 CALM      30.29S
6HR MIN TEMP:  34; 6HR MAX TEMP:  41;


$$

INZ030>032-037>040-046>048-054>057-064-065-290100-
CENTRAL INDIANA

CITY           SKY/WX    TMP DP  RH WIND       PRES   REMARKS
CP ATTERBURY + CLEAR     36  14  41 CALM      30.30S
COLUMBUS       CLEAR     34  12  40 CALM      30.31R
FRANKFORT +    CLEAR     34  15  44 CALM      30.31S
6HR MIN TEMP:  32; 6HR MAX TEMP:  37;

GREENWOOD *+   CLEAR     36   9  32 E5        30.29S
INDIANAPOLIS   CLEAR     34  13  41 NW6       30.28R WCI  29
6HR MIN TEMP:  33; 6HR MAX TEMP:  40;

-EAGLE CREEK   CLEAR     35  12  38 NW5       30.29R WCI  31
6HR MIN TEMP:  32; 6HR MAX TEMP:  38;

KOKOMO *+        N/A     34  10  37 CALM      30.30S
6HR MIN TEMP:  30; 6HR MAX TEMP:  37;

MARION +       CLEAR     32  13  45 CALM      30.30F
MT COMFORT *+  CLEAR     32   3  29 NE5       30.30R WCI  27
SHELBYVILLE    CLEAR     36  16  44 CALM      30.29S
6HR MIN TEMP:  34; 6HR MAX TEMP:  39;

ZIONSVILLE +   CLEAR     33  17  51 NE3       30.30S
6HR MIN TEMP:  32; 6HR MAX TEMP:  37;


$$

INZ033-034-041-042-049-050-058-059-290100-
EAST CENTRAL INDIANA

CITY           SKY/WX    TMP DP  RH WIND       PRES   REMARKS
MUNCIE         CLEAR     33  14  45 CALM      30.30R
6HR MIN TEMP:  30; 6HR MAX TEMP:  35;


$$

INZ060-061-067>069-081>083-085>088-290100-
SOUTHWEST INDIANA

CITY           SKY/WX    TMP DP  RH WIND       PRES   REMARKS
EVANSVILLE     CLEAR     41  19  41 NW3       30.31R
6HR MIN TEMP:  36; 6HR MAX TEMP:  44;

HUNTINGBURG *+ CLEAR     39  18  41 NW5       30.30S
6HR MIN TEMP:  36; 6HR MAX TEMP:  43;

WASHINGTON +   CLEAR     37  14  38 N3        30.30S
6HR MIN TEMP:  33; 6HR MAX TEMP:  40;


$$

INZ062-063-066-070>080-084-089>092-290100-
SOUTH CENTRAL AND SOUTHEAST INDIANA

CITY           SKY/WX    TMP DP  RH WIND       PRES   REMARKS
BLOOMINGTON    CLEAR     36  13  38 N6        30.28R
6HR MIN TEMP:  35; 6HR MAX TEMP:  42;

NORTH VERNON + CLEAR     36  16  44 N5        30.30S
SEYMOUR +      CLEAR     36  19  51 NE5       30.31R

$$



USA.gov is the U.S. government's official web portal to all federal, state and local government web resources and services.